シュヴァスマン-ヴァハマン第3彗星

73P/Schwassmann-Wachmann 3 (2017)

English version
Home page
Updated on March 3, 2018

---------------------------------------------------------------------

・ プロフィール

・ 写真集

・ 軌道要素

73P/Schwassmann-Wachmann
Epoch 2017 Mar. 28.0 TT = JDT 2457840.5
T 2017 Mar. 16.84146 TT                                 MPCW
q   0.9721772            (2000.0)            P               Q
n   0.18133706     Peri.  199.38773     -0.02255381     +0.98290674
a   3.0913274      Node    69.66187     -0.88959538     +0.06366587
e   0.6855146      Incl.   11.23689     -0.45619226     -0.17274548
P   5.44
From 1150 observations 2010 Nov. 28-2017 Sept. 30, mean residual 0".7.
     Nongravitational parameters A1 = +0.61, A2 = +0.0033.

73P-BT/Schwassmann-Wachmann
Epoch 2017 Mar. 28.0 TT = JDT 2457840.5
T 2017 Mar. 16.84173 TT                                 MPCW
q   0.9721271            (2000.0)            P               Q
n   0.18078101     Peri.  199.37370     -0.02264182     +0.98289061
a   3.0976630      Node    69.67088     -0.88960359     +0.06362016
e   0.6861740      Incl.   11.24095     -0.45617190     -0.17285405
P   5.45
From 225 observations 2017 Feb. 10-Mar. 6, mean residual 0".6.

・ 星図

・ 光度変化

	C核:
        m1 =  9.7 + 5 logΔ + 16.5 log r  [   ,-76]  (              〜2016年12月30日)
        m1 = 11.2 + 5 logΔ +  6.5 log r  [-76,  0]  (2016年12月30日〜2017年 3月16日)
        m1 = 11.4 + 5 logΔ + 15.0 log r  [  0,156]  (2017年 3月16日〜2017年 8月19日)
        m1 = 22   + 5 logΔ - 17   log r  [156,223]  (2017年 8月19日〜2017年10月25日)
        m1 =  4.0 + 5 logΔ + 25.0 log r  [223,   ]  (2017年10月25日〜              )

	B核:
        m1 = 12.0 + 5 logΔ + 20.0 log r(t + 30)

	BT核:
        m1 = 11.5 + 5 logΔ + 25.0 log r(t + 50)  [-35, 45]  (2017年 2月 9日〜2017年 4月30日)
        m1 = 12.0 + 5 logΔ + 35   log r          [ 45,   ]  (2017年 4月30日〜              )

---------------------------------------------------------------------

軌道要素はM.P.E.C. 2017-T14に掲載されたものです。
星図はステラナビゲータ Ver.8 (アストロアーツ) で作成したものです。
光度グラフはComet for Windowsで作成したものです。

---------------------------------------------------------------------

Copyright(C) Seiichi Yoshida (comet@aerith.net). All rights reserved.